sat.trackr.live / text

‹ back to catalog

STARLINK-3760

NORAD 52298 · 2022-041AP

PAYLOAD ACTIVE UNKNOWN

§ Identity

Operator
Country
US
Launch date
2022-04-21
Launch site
AFETR
Launch vehicle
Mass (kg)
RCS (m²)

Purposes: comms

External: N2YO · Heavens-Above · Gunter

§ Orbital elements

Epoch: 2026-09-19T16:50:45.659904Z

Period
93.85 min
Inclination
53.1604°
Eccentricity
0.0001196
Mean motion
15.34389132 rev/d
Perigee alt
461.9 km
Apogee alt
463.6 km
Semi-major
6,840.9 km
B*
1.2289e-5
RAAN
295.0985°
Arg perigee
79.5185°
Mean anomaly
280.5952°
Rev number
24,397

§ Raw data

STARLINK-37601 52298U 22041AP  26262.70191736  .00000039  00000+0  12289-4 0  99942 52298  53.1604 295.0985 0001196  79.5185 280.5952 15.34389132243972

JSON: /api/v1/satellites/52298 · /tle

For live sub-satellite position, see the globe view (requires WebGL).

§ Visibility from observer

Set your observer location to see the next 7 days of passes ≥ 10°. The values pass through the URL so the page stays shareable.

No JS? Fill the form by hand. The geolocation button needs JavaScript.